This is the latest recevied weather packets stored in our database for station/object KD7AWQ. If no packets are shown the sender has not sent any weather packets the latest 10 day(s).
| Time | Temp. | Humidity | Pressure | Rain* | Wind** | Luminosity | Snow |
|---|---|---|---|---|---|---|---|
| 1777975050 | 11.67° C | 89% | 1182.6 hPa | 3.05 mm | - | 0 W/m² | - |
| 1777974748 | 11.67° C | 88% | 1182.6 hPa | 3.05 mm | - | 0 W/m² | - |
| 1777974443 | 11.67° C | 87% | 1182.6 hPa | 1.78 mm | - | 0 W/m² | - |
| 1777974140 | 11.67° C | 87% | 1182.6 hPa | 1.27 mm | - | 0 W/m² | - |
| 1777973836 | 11.67° C | 87% | 1182.8 hPa | 1.27 mm | - | 0 W/m² | - |
| 1777973534 | 11.67° C | 85% | 1182.8 hPa | 0 mm | - | 0 W/m² | - |
| 1777973230 | 11.67° C | 84% | 1182.8 hPa | 1.78 mm | - | 0 W/m² | - |
| 1777972930 | 11.67° C | 85% | 1182.6 hPa | 1.78 mm | - | 0 W/m² | - |
| 1777972626 | 11.67° C | 86% | 1182.9 hPa | 0 mm | - | 0 W/m² | - |
| 1777972324 | 11.67° C | 86% | 1182.9 hPa | 0 mm | - | 0 W/m² | - |
| 1777972021 | 11.67° C | 85% | 1182.7 hPa | 0 mm | - | 0 W/m² | - |
| 1777971720 | 11.67° C | 85% | 1182.9 hPa | 0 mm | - | 0 W/m² | - |
| 1777971417 | 11.67° C | 85% | 1182.9 hPa | 1.27 mm | - | 0 W/m² | - |
| 1777971115 | 11.67° C | 85% | 1183 hPa | 1.27 mm | - | 0 W/m² | - |
| 1777970812 | 11.67° C | 84% | 1183.1 hPa | 0 mm | - | 0 W/m² | - |
| 1777970511 | 12.22° C | 83% | 1183 hPa | 0 mm | - | 0 W/m² | - |
| 1777970207 | 12.22° C | 82% | 1183.2 hPa | 1.78 mm | - | 0 W/m² | - |
| 1777969904 | 12.22° C | 82% | 1183.3 hPa | 1.78 mm | - | 0 W/m² | - |
| 1777969600 | 12.22° C | 81% | 1183.5 hPa | 0 mm | - | 0 W/m² | - |
| 1777969297 | 12.22° C | 81% | 1183.6 hPa | 0 mm | - | 0 W/m² | - |
| 1777968993 | 12.78° C | 79% | 1183.6 hPa | 0 mm | - | 0 W/m² | - |
| 1777968691 | 12.78° C | 78% | 1183.5 hPa | 0 mm | - | 0 W/m² | - |
| 1777968387 | 12.78° C | 76% | 1183.5 hPa | 0 mm | - | 0 W/m² | - |
| 1777968083 | 12.78° C | 73% | 1183.3 hPa | 0 mm | - | 0 W/m² | - |
| 1777967780 | 13.33° C | 73% | 1183.3 hPa | 0 mm | - | 0 W/m² | - |
* Rain latest hour (hover to see other rain measurements)
** Current wind speed in m/s (hover to see current wind gust speed)